This is the latest recevied weather packets stored in our database for station/object DO2HN-12. If no packets are shown the sender has not sent any weather packets the latest 1 day(s).
| Time | Temp. | Humidity | Pressure | Rain* | Wind** | Luminosity | Snow |
|---|---|---|---|---|---|---|---|
| 1777723541 | 24.44° C | 30% | 1023.7 hPa | - | - | - | - |
| 1777722641 | 24.44° C | 32% | 1023.8 hPa | - | - | - | - |
| 1777721740 | 23.33° C | 30% | 1024.1 hPa | - | - | - | - |
| 1777720839 | 22.78° C | 29% | 1024.2 hPa | - | - | - | - |
| 1777719938 | 22.78° C | 30% | 1024.5 hPa | - | - | - | - |
| 1777719037 | 23.33° C | 30% | 1024.6 hPa | - | - | - | - |
| 1777718137 | 22.22° C | 32% | 1024.8 hPa | - | - | - | - |
| 1777717236 | 22.22° C | 32% | 1025 hPa | - | - | - | - |
| 1777716335 | 21.67° C | 32% | 1025.3 hPa | - | - | - | - |
| 1777715434 | 21.11° C | 33% | 1025.4 hPa | - | - | - | - |
| 1777714533 | 21.11° C | 35% | 1025.5 hPa | - | - | - | - |
| 1777713632 | 21.11° C | 35% | 1025.6 hPa | - | - | - | - |
| 1777712732 | 21.11° C | 38% | 1025.8 hPa | - | - | - | - |
| 1777711831 | 20.56° C | 38% | 1026 hPa | - | - | - | - |
| 1777710930 | 20.56° C | 40% | 1026 hPa | - | - | - | - |
| 1777710029 | 20.56° C | 40% | 1026.1 hPa | - | - | - | - |
| 1777709128 | 18.89° C | 42% | 1026.2 hPa | - | - | - | - |
| 1777708228 | 18.89° C | 45% | 1026.5 hPa | - | - | - | - |
| 1777707326 | 18.33° C | 48% | 1026.6 hPa | - | - | - | - |
| 1777706425 | 16.67° C | 50% | 1026.6 hPa | - | - | - | - |
* Rain since midnight (hover to see other rain measurements)
** Current wind speed in m/s (hover to see current wind gust speed)